User: anonymous   Login
Location: Oshawa
(43.9000°N, 78.8670°W)
Time: 05:46:56
(UTC-04:00)
Language:

Iridium 46 - Orbit

View from above orbital plane
View from above orbital plane
View from above satellite
View from above satellite

Ground track
Ground track

The orbit data is extracted from the following two-line orbital elements,

1 24905U 97043C   15209.42213718  .00000021  00000-0  59009-6 0  9990
2 24905 086.3989 184.2541 0002426 087.4535 272.6939 14.34218419938966
Epoch (UTC): 28 July 2015 10:07:52
Eccentricity: 0.0002426
inclination: 86.3989°
perigee height: 776 km
apogee height: 779 km
right ascension of ascending node: 184.2541°
argument of perigee: 87.4535°
revolutions per day: 14.34218419
mean anomaly at epoch: 272.6939°
orbit number at epoch: 93896

The dashed part of the orbit path shows where the satellite is in the earth's shadow,  

DLR